Location: ??????????
(54.4061°N, 22.6114°E)
Time: 21:52:10
(UTC+00:00)

Cosmos 2228 - Pass Details

Date: 23 October 2019
Orbit: 588 x 620 km, 82.5° (Epoch: 13 November)

Event Time Altitude Azimuth Distance (km) Brightness Sun altitude
Rises 16:27:31 0° 206° (SSW) 2,868 6.9 -11.3°
Reaches altitude 10° 16:29:49 10° 213° (SSW) 1,964 6.1 -11.6°
Maximum altitude 16:34:00 47° 287° (WNW) 814 4.2 -12.2°
Drops below altitude 10° 16:38:12 10° 2° (N) 1,959 5.6 -12.8°
Sets 16:40:29 0° 9° (N) 2,862 6.4 -13.2°
